Regional Weather Roundup
Issued by NWS Memphis, TN

Home | Current Version | Previous Version | Text Only | Print | Product List | Glossary On
Versions: 1 2 3 4 5 6 7 8 9 10 11 12 13 14 15 16 17 18 19 20 21 22 23 24 25 26 27 28 29 30 31 32 33 34 35 36 37 38 39 40 41 42 43 44 45 46 47 48 49 50
000
ASUS44 KMEG 300910
RWRMEG
MEMPHIS CWA HOURLY WEATHER ROUNDUP
NATIONAL WEATHER SERVICE MEMPHIS TN
400 AM CDT TUE AUG 30 2016

...WEST TENNESSEE...

CITY           SKY/WX    TMP DP  RH WIND       PRES   REMARKS
MEMPHIS INTL   CLEAR     82  73  74 VRB6      30.05S
NWS MEMPHIS      N/A     76 N/A N/A MISG        N/A
JACKSON        FOG       73  72  96 CALM      30.06F VSB 3/4
LEXINGTON      CLEAR     73  73 100 CALM      30.06S
DYERSBURG      CLEAR     75  73  94 MISG      30.07F
UNION CITY     CLEAR     73  73 100 N3        30.07F
PARIS          CLEAR     72  72 100 CALM      30.08F


...EASTERN ARKANSAS...

CITY           SKY/WX    TMP DP  RH WIND       PRES   REMARKS
JONESBORO      CLEAR     78  75  90 NE5       30.06F
WEST MEMPHIS   CLEAR     74  73  97 N3        30.03F FOG
BATESVILLE     MOCLDY    73  72  94 W3        30.09S
NEWPORT        CLEAR     75  75 100 N7        30.07S FOG
WALNUT RIDGE   CLEAR     75  72  88 N3        30.07F
BLYTHEVILLE    CLEAR     76  74  93 CALM      30.07S
SEARCY         CLEAR     77  75  93 N3        30.07S
STUTTGART      CLEAR     75  72  88 N6        30.04S
PINE BLUFF     CLEAR     75  73  93 CALM      30.03S
MONTICELLO     CLEAR     77  73  87 CALM      30.01F


...NORTH MISSISSIPPI...

CITY           SKY/WX    TMP DP  RH WIND       PRES   REMARKS
TUPELO         CLEAR     75  71  87 CALM      30.03S
OXFORD         CLEAR     72  70  94 CALM      30.06S
BATESVILLE     CLEAR     73  71  95 CALM      30.03F FOG
TUNICA         CLEAR     72  72 100 NE3       30.04S
CLARKSDALE     CLEAR     73  73 100 CALM      30.02F
CORINTH          N/A     72  70  94 CALM      30.04F
GREENWOOD      PTCLDY    74  70  87 NE6       30.00S
COLUMBUS       CLEAR     74  70  86 E1        30.00F
GOLDEN TRIANGL CLEAR     75  64  69 E6        30.00F


...SOUTHEAST MISSOURI...

CITY           SKY/WX    TMP DP  RH WIND       PRES   REMARKS
KENNETT        CLEAR     77  77 100 NE6       30.05F FOG
WEST PLAINS    PTCLDY    72  69  90 CALM      30.15F
POPLAR BLUFF   CLEAR     76  72  87 NE6       30.08F
CAPE GIRARDEAU CLEAR     71  70  96 CALM      30.09F FOG


...NORTHWEST ALABAMA...

CITY           SKY/WX    TMP DP  RH WIND       PRES   REMARKS
MUSCLE SHOALS  CLEAR     71  69  93 E3        30.07S


...MIDDLE TENNESSEE...

CITY           SKY/WX    TMP DP  RH WIND       PRES   REMARKS
NASHVILLE      CLEAR     76  71  85 CALM      30.09F
CLARKSVILLE    CLEAR     73  69  87 CALM      30.09F
COLUMBIA       CLOUDY   N/A N/A N/A CALM      30.07S VSB 1


...WESTERN KENTUCKY...

CITY           SKY/WX    TMP DP  RH WIND       PRES   REMARKS
PADUCAH        CLEAR     73  71  93 CALM      30.08F
FORT CAMPBELL  CLEAR     73  71  92 NE6       30.09S


...CENTRAL ARKANSAS...

CITY           SKY/WX    TMP DP  RH WIND       PRES   REMARKS
LITTLE ROCK    CLEAR     79  73  82 N6        30.04F


SKY/WX REPORTED AS FAIR MEANS FEW OR NO CLOUDS BELOW
12 THOUSAND FEET.





USA.gov is the U.S. government's official web portal to all federal, state and local government web resources and services.